TOM4SM LPFR-EGGD

Flight info

Callsign TOM4SM
Flight time 2h 10m
Altitude 38000
Route ELVAR DCT BARDI DCT ZMR DCT NUBLO DCT RONSI DCT DELOG DCT NOVAN DCT NOZHU/N0394F290 DCT SHIRI DCT TOJAQ
Aircraft B738/M-SDE2E3FGHIRWXY/LB1

Departure

Time 2026-05-04 09:53
Airport Faro - Gago Coutinho International Airport (LPFR)

Arrival

Time 2026-05-04 12:03
Airport Bristol Airport (EGGD)
Time Latitude Longitude Altitude Speed Heading
2026-05-04 09:29 37.01898 -7.96695 19 ft 0 kts
2026-05-04 09:43 37.01882 -7.96698 19 ft 3 kts
2026-05-04 09:43 37.01858 -7.96702 21 ft 3 kts
2026-05-04 09:43 37.01835 -7.96707 21 ft 3 kts 15°
2026-05-04 09:44 37.01816 -7.96723 20 ft 3 kts 81°
2026-05-04 09:44 37.01815 -7.96731 23 ft 3 kts 100°
2026-05-04 09:44 37.01812 -7.96716 22 ft 0 kts 100°
2026-05-04 09:49 37.01604 -7.96423 19 ft 10 kts 98°
2026-05-04 09:49 37.01590 -7.96334 19 ft 11 kts 101°
2026-05-04 09:49 37.01575 -7.96239 19 ft 12 kts 101°
2026-05-04 09:51 37.01351 -7.95914 21 ft 10 kts 264°
2026-05-04 09:51 37.01357 -7.95969 21 ft 0 kts 281°
2026-05-04 09:52 37.01358 -7.95975 20 ft 6 kts 281°
2026-05-04 09:52 37.01409 -7.96315 21 ft 75 kts 280°
2026-05-04 09:52 37.01536 -7.97227 19 ft 135 kts 281°
2026-05-04 09:52 37.01761 -7.98536 295 ft 160 kts 282°
2026-05-04 09:53 37.01967 -7.99869 1144 ft 154 kts 283°
2026-05-04 09:53 37.02156 -8.01219 1801 ft 163 kts 283°
2026-05-04 09:53 37.02345 -8.02642 2446 ft 170 kts 283°
2026-05-04 09:53 37.02533 -8.04145 3079 ft 179 kts 282°
2026-05-04 09:54 37.02726 -8.05724 3707 ft 188 kts 282°
2026-05-04 09:54 37.02934 -8.07372 4310 ft 194 kts 282°
2026-05-04 09:54 37.03378 -8.08955 4866 ft 195 kts 312°
2026-05-04 09:54 37.04562 -8.09738 5387 ft 201 kts 355°
2026-05-04 09:55 37.05980 -8.09554 5882 ft 211 kts
2026-05-04 09:55 37.07491 -8.09277 6201 ft 231 kts
2026-05-04 09:55 37.09176 -8.08970 6439 ft 258 kts
2026-05-04 09:55 37.10986 -8.08634 7050 ft 268 kts
2026-05-04 09:56 37.12865 -8.08278 7716 ft 276 kts
2026-05-04 09:56 37.14748 -8.07912 8491 ft 280 kts
2026-05-04 09:56 37.16688 -8.07517 9242 ft 285 kts
2026-05-04 09:56 37.18667 -8.07091 9997 ft 291 kts
2026-05-04 09:57 37.20687 -8.06642 10549 ft 303 kts
2026-05-04 09:57 37.22846 -8.06168 10762 ft 326 kts
2026-05-04 09:57 37.25121 -8.05672 11316 ft 335 kts
2026-05-04 09:57 37.27432 -8.05161 12056 ft 339 kts
2026-05-04 09:58 37.29695 -8.04204 12824 ft 347 kts 19°
2026-05-04 09:58 37.31930 -8.02993 13593 ft 351 kts 18°
2026-05-04 09:58 37.34198 -8.01785 14294 ft 357 kts 18°
2026-05-04 10:00 37.50054 -7.93195 18873 ft 389 kts 17°
2026-05-04 10:00 37.52553 -7.91845 19490 ft 392 kts 17°
2026-05-04 10:02 37.70789 -7.82104 23671 ft 418 kts 16°
2026-05-04 10:04 37.89064 -7.69057 26827 ft 436 kts 11°
2026-05-04 10:04 37.91963 -7.67886 27253 ft 436 kts
2026-05-04 10:04 37.94884 -7.66833 27700 ft 438 kts
2026-05-04 10:04 37.97846 -7.65824 28089 ft 442 kts
2026-05-04 10:05 38.00824 -7.64828 28472 ft 445 kts
2026-05-04 10:05 38.03831 -7.63819 28861 ft 448 kts
2026-05-04 10:05 38.06816 -7.62808 29249 ft 451 kts
2026-05-04 10:05 38.09857 -7.61768 29620 ft 454 kts
2026-05-04 10:06 38.12922 -7.60712 29983 ft 457 kts
2026-05-04 10:06 38.15998 -7.59647 30276 ft 461 kts
2026-05-04 10:06 38.19110 -7.58567 30519 ft 465 kts
2026-05-04 10:08 38.37985 -7.51979 32501 ft 470 kts
2026-05-04 10:08 38.41135 -7.50875 32919 ft 469 kts
2026-05-04 10:08 38.44276 -7.49775 33389 ft 467 kts
2026-05-04 10:08 38.47402 -7.48679 33786 ft 466 kts
2026-05-04 10:09 38.50540 -7.47580 34124 ft 466 kts
2026-05-04 10:09 38.53666 -7.46485 34374 ft 467 kts
2026-05-04 10:09 38.56804 -7.45385 34651 ft 467 kts
2026-05-04 10:09 38.59942 -7.44283 34926 ft 467 kts
2026-05-04 10:10 38.63081 -7.43179 35184 ft 467 kts
2026-05-04 10:10 38.66175 -7.42090 35465 ft 467 kts
2026-05-04 10:10 38.69312 -7.40985 35733 ft 468 kts
2026-05-04 10:10 38.72452 -7.39877 35994 ft 468 kts
2026-05-04 10:11 38.75600 -7.38766 36261 ft 468 kts
2026-05-04 10:11 38.78738 -7.37657 36512 ft 468 kts
2026-05-04 10:11 38.81878 -7.36546 36747 ft 468 kts
2026-05-04 10:11 38.85025 -7.35432 37004 ft 468 kts
2026-05-04 10:12 38.88129 -7.34332 37261 ft 468 kts
2026-05-04 10:12 38.91265 -7.33220 37590 ft 467 kts
2026-05-04 10:12 38.94403 -7.32105 37886 ft 466 kts
2026-05-04 10:12 38.97525 -7.30996 38073 ft 467 kts
2026-05-04 10:13 39.03828 -7.28757 38089 ft 471 kts
2026-05-04 10:13 39.10116 -7.26512 38063 ft 466 kts
2026-05-04 10:14 39.16314 -7.24298 38074 ft 463 kts
2026-05-04 10:16 39.37230 -7.12209 38109 ft 483 kts 22°
2026-05-04 10:16 39.40229 -7.10191 38073 ft 485 kts 22°
2026-05-04 10:16 39.46188 -7.06213 38067 ft 486 kts 22°
2026-05-04 10:17 39.52203 -7.02210 38059 ft 485 kts 22°
2026-05-04 10:19 39.75959 -6.86324 38047 ft 476 kts 22°
2026-05-04 10:19 39.81837 -6.82373 38039 ft 475 kts 22°
2026-05-04 10:20 39.87703 -6.78424 38041 ft 474 kts 22°
2026-05-04 10:20 39.93568 -6.74468 38046 ft 473 kts 22°
2026-05-04 10:21 39.99422 -6.70510 38048 ft 474 kts 22°
2026-05-04 10:21 40.05238 -6.66572 38044 ft 474 kts 22°
2026-05-04 10:22 40.14044 -6.60593 38047 ft 476 kts 23°
2026-05-04 10:23 40.19925 -6.56590 38042 ft 477 kts 23°
2026-05-04 10:25 40.43528 -6.40443 38036 ft 479 kts 23°
2026-05-04 10:25 40.49438 -6.36379 38050 ft 479 kts 24°
2026-05-04 10:26 40.55358 -6.32301 38045 ft 480 kts 24°
2026-05-04 10:26 40.61247 -6.28240 38041 ft 480 kts 23°
2026-05-04 10:27 40.67174 -6.24153 38042 ft 480 kts 23°
2026-05-04 10:27 40.73088 -6.20068 38039 ft 479 kts 24°
2026-05-04 10:28 40.78998 -6.15976 38037 ft 480 kts 24°
2026-05-04 10:28 40.84910 -6.11872 38042 ft 479 kts 24°
2026-05-04 10:29 40.90795 -6.07779 38025 ft 479 kts 24°
2026-05-04 10:29 40.96691 -6.03670 38037 ft 479 kts 24°
2026-05-04 10:30 41.02590 -5.99551 38035 ft 479 kts 24°
2026-05-04 10:30 41.08456 -5.95447 38036 ft 480 kts 24°
2026-05-04 10:31 41.14373 -5.91299 38024 ft 480 kts 24°
2026-05-04 10:32 41.35078 -5.76713 38019 ft 481 kts 25°
2026-05-04 10:33 41.40947 -5.72559 38014 ft 481 kts 25°
2026-05-04 10:33 41.46848 -5.68374 38003 ft 481 kts 25°
2026-05-04 10:34 41.52754 -5.64182 38008 ft 480 kts 24°
2026-05-04 10:34 41.58813 -5.60487 38011 ft 478 kts 19°
2026-05-04 10:35 41.64982 -5.57135 38029 ft 478 kts 19°
2026-05-04 10:35 41.71140 -5.53760 38008 ft 478 kts 19°
2026-05-04 10:36 41.77282 -5.50312 38003 ft 478 kts 20°
2026-05-04 10:36 41.83421 -5.46827 38003 ft 478 kts 20°
2026-05-04 10:37 41.89512 -5.43359 38007 ft 478 kts 20°
2026-05-04 10:37 41.95641 -5.39866 37997 ft 478 kts 20°
2026-05-04 10:39 42.17037 -5.27620 38008 ft 478 kts 20°
2026-05-04 10:40 42.23162 -5.24099 38004 ft 478 kts 20°
2026-05-04 10:40 42.29293 -5.20566 38004 ft 479 kts 21°
2026-05-04 10:41 42.35375 -5.17054 38005 ft 479 kts 21°
2026-05-04 10:41 42.41543 -5.13484 38002 ft 479 kts 21°
2026-05-04 10:42 42.47641 -5.09947 37998 ft 479 kts 21°
2026-05-04 10:42 42.53777 -5.06380 38004 ft 479 kts 21°
2026-05-04 10:43 42.59906 -5.02810 38002 ft 479 kts 21°
2026-05-04 10:45 42.84382 -4.88481 38008 ft 478 kts 21°
2026-05-04 10:45 42.90488 -4.84887 38013 ft 478 kts 21°
2026-05-04 10:46 42.96609 -4.81276 38031 ft 478 kts 21°
2026-05-04 10:46 43.02717 -4.77665 38032 ft 478 kts 21°
2026-05-04 10:47 43.08808 -4.74056 38031 ft 478 kts 21°
2026-05-04 10:47 43.14912 -4.70432 38042 ft 477 kts 21°
2026-05-04 10:49 43.38166 -4.56549 38034 ft 474 kts 21°
2026-05-04 10:50 43.44167 -4.52947 38046 ft 473 kts 21°
2026-05-04 10:52 43.68322 -4.38384 38041 ft 475 kts 22°
2026-05-04 10:52 43.74342 -4.34734 38042 ft 475 kts 22°
2026-05-04 10:54 43.98638 -4.19920 38037 ft 477 kts 22°
2026-05-04 10:56 44.22855 -4.05021 38038 ft 476 kts 22°
2026-05-04 10:57 44.28915 -4.01273 38029 ft 476 kts 22°
2026-05-04 10:57 44.35153 -3.98357 38032 ft 472 kts
2026-05-04 10:58 44.41658 -3.97396 38015 ft 470 kts
2026-05-04 10:58 44.48131 -3.96597 38020 ft 469 kts
2026-05-04 10:59 44.54636 -3.95740 38023 ft 470 kts
2026-05-04 10:59 44.61147 -3.94834 38020 ft 470 kts
2026-05-04 11:00 44.67648 -3.93911 38018 ft 469 kts
2026-05-04 11:02 44.93638 -3.90207 38024 ft 469 kts
2026-05-04 11:05 45.42290 -3.83192 38013 ft 468 kts
2026-05-04 11:06 45.48773 -3.82248 38015 ft 468 kts
2026-05-04 11:06 45.55255 -3.81302 38014 ft 468 kts
2026-05-04 11:10 46.00584 -3.74624 38007 ft 468 kts
2026-05-04 11:12 46.26466 -3.70761 38007 ft 467 kts
2026-05-04 11:12 46.32893 -3.69841 38007 ft 466 kts
2026-05-04 11:13 46.39386 -3.69790 38012 ft 465 kts 358°
2026-05-04 11:13 46.45860 -3.70038 38000 ft 465 kts 358°
2026-05-04 11:14 46.52333 -3.70249 38008 ft 465 kts 358°
2026-05-04 11:16 46.78160 -3.70750 37999 ft 464 kts 358°
2026-05-04 11:16 46.84632 -3.70871 37999 ft 464 kts 358°
2026-05-04 11:17 46.91100 -3.70992 38003 ft 464 kts 358°
2026-05-04 11:19 47.16930 -3.71478 38000 ft 464 kts 358°
2026-05-04 11:19 47.23394 -3.71601 37986 ft 464 kts 358°
2026-05-04 11:20 47.29865 -3.71724 37993 ft 464 kts 358°
2026-05-04 11:20 47.36329 -3.71847 38000 ft 464 kts 358°
2026-05-04 11:22 47.62162 -3.72342 37999 ft 465 kts 359°
2026-05-04 11:23 47.68645 -3.72467 37986 ft 465 kts 359°
2026-05-04 11:25 47.91249 -3.72905 37979 ft 464 kts 359°
2026-05-04 11:25 47.97720 -3.73031 37984 ft 464 kts 359°
2026-05-04 11:27 48.26677 -3.73599 37975 ft 462 kts 359°
2026-05-04 11:28 48.33109 -3.73726 37984 ft 461 kts 359°
2026-05-04 11:28 48.39526 -3.73853 37980 ft 461 kts 359°
2026-05-04 11:29 48.45935 -3.73981 37980 ft 460 kts 359°
2026-05-04 11:29 48.52355 -3.74109 37993 ft 460 kts 359°
2026-05-04 11:33 48.97027 -3.75007 38012 ft 459 kts 359°
2026-05-04 11:33 49.03416 -3.75137 38025 ft 459 kts 359°
2026-05-04 11:34 49.09805 -3.75267 37667 ft 465 kts 359°
2026-05-04 11:34 49.13030 -3.75333 37193 ft 463 kts 359°
2026-05-04 11:34 49.16258 -3.75399 36628 ft 462 kts 359°
2026-05-04 11:35 49.19465 -3.75465 36187 ft 459 kts 359°
2026-05-04 11:35 49.22638 -3.75530 35791 ft 455 kts 359°
2026-05-04 11:35 49.25797 -3.75595 35377 ft 452 kts 359°
2026-05-04 11:35 49.28930 -3.75659 34970 ft 449 kts 359°
2026-05-04 11:36 49.32042 -3.75723 34560 ft 446 kts 359°
2026-05-04 11:36 49.35104 -3.75786 34139 ft 444 kts 359°
2026-05-04 11:36 49.38187 -3.75850 33673 ft 442 kts 359°
2026-05-04 11:36 49.41253 -3.75913 33230 ft 439 kts 359°
2026-05-04 11:37 49.44299 -3.75976 32809 ft 436 kts 359°
2026-05-04 11:37 49.47321 -3.76039 32399 ft 433 kts 359°
2026-05-04 11:37 49.49315 -3.76080 32136 ft 430 kts 359°
2026-05-04 11:37 49.52301 -3.76142 31740 ft 427 kts 359°
2026-05-04 11:38 49.55262 -3.76203 31354 ft 425 kts 359°
2026-05-04 11:38 49.58214 -3.76265 30965 ft 422 kts 359°
2026-05-04 11:38 49.61141 -3.76326 30579 ft 420 kts 359°
2026-05-04 11:38 49.64064 -3.76387 30197 ft 418 kts 359°
2026-05-04 11:39 49.66964 -3.76447 30030 ft 416 kts 359°
2026-05-04 11:39 49.69828 -3.76484 30004 ft 405 kts
2026-05-04 11:40 49.86492 -3.74501 26941 ft 416 kts
2026-05-04 11:41 49.89441 -3.74139 26450 ft 431 kts
2026-05-04 11:41 49.92453 -3.73776 26019 ft 435 kts
2026-05-04 11:41 49.95467 -3.73416 25637 ft 432 kts
2026-05-04 11:41 49.98454 -3.73061 25254 ft 428 kts
2026-05-04 11:42 50.01410 -3.72709 24869 ft 424 kts
2026-05-04 11:42 50.04334 -3.72360 24582 ft 420 kts
2026-05-04 11:42 50.07238 -3.72013 24291 ft 416 kts
2026-05-04 11:42 50.10113 -3.71669 24000 ft 413 kts
2026-05-04 11:43 50.12972 -3.71325 23719 ft 411 kts
2026-05-04 11:43 50.15821 -3.70983 23398 ft 409 kts
2026-05-04 11:43 50.18658 -3.70641 23063 ft 408 kts
2026-05-04 11:43 50.21445 -3.70305 22737 ft 407 kts
2026-05-04 11:44 50.24298 -3.69961 22404 ft 406 kts
2026-05-04 11:44 50.27109 -3.69621 22085 ft 405 kts
2026-05-04 11:44 50.29914 -3.69282 21758 ft 403 kts
2026-05-04 11:44 50.32677 -3.68947 21443 ft 402 kts
2026-05-04 11:45 50.35462 -3.68609 21105 ft 402 kts
2026-05-04 11:45 50.38252 -3.68271 20791 ft 401 kts
2026-05-04 11:45 50.41037 -3.67933 20485 ft 401 kts
2026-05-04 11:45 50.43816 -3.67511 20089 ft 401 kts
2026-05-04 11:46 50.46569 -3.66978 19715 ft 397 kts
2026-05-04 11:46 50.49293 -3.66434 19348 ft 393 kts
2026-05-04 11:46 50.51999 -3.65902 18980 ft 391 kts
2026-05-04 11:46 50.54690 -3.65382 18623 ft 389 kts
2026-05-04 11:47 50.57369 -3.64869 18254 ft 386 kts
2026-05-04 11:47 50.60033 -3.64360 17842 ft 384 kts
2026-05-04 11:47 50.62680 -3.63854 17441 ft 381 kts
2026-05-04 11:47 50.65273 -3.63357 17051 ft 378 kts
2026-05-04 11:48 50.67878 -3.62857 16665 ft 376 kts
2026-05-04 11:48 50.70466 -3.62361 16260 ft 372 kts
2026-05-04 11:48 50.73022 -3.61869 15879 ft 367 kts
2026-05-04 11:48 50.75548 -3.61383 15492 ft 363 kts
2026-05-04 11:49 50.78046 -3.60901 15118 ft 359 kts
2026-05-04 11:49 50.80511 -3.60425 14749 ft 355 kts
2026-05-04 11:49 50.82954 -3.59953 14381 ft 351 kts
2026-05-04 11:49 50.85368 -3.59486 14016 ft 347 kts
2026-05-04 11:50 50.87712 -3.59033 13626 ft 338 kts
2026-05-04 11:50 50.90019 -3.58586 13236 ft 331 kts
2026-05-04 11:50 50.92278 -3.58117 12832 ft 323 kts 13°
2026-05-04 11:50 50.94305 -3.56790 12406 ft 311 kts 37°
2026-05-04 11:51 50.95895 -3.54535 12058 ft 305 kts 48°
2026-05-04 11:51 50.97353 -3.52087 11681 ft 306 kts 49°
2026-05-04 11:51 50.98804 -3.49619 11291 ft 303 kts 49°
2026-05-04 11:51 51.00239 -3.47201 10909 ft 298 kts 48°
2026-05-04 11:52 51.01655 -3.44838 10537 ft 293 kts 48°
2026-05-04 11:52 51.03053 -3.42512 10162 ft 289 kts 48°
2026-05-04 11:52 51.04429 -3.40224 9790 ft 285 kts 48°
2026-05-04 11:52 51.06008 -3.38316 9372 ft 290 kts 24°
2026-05-04 11:53 51.07936 -3.37594 9005 ft 288 kts
2026-05-04 11:53 51.09927 -3.37287 8610 ft 286 kts
2026-05-04 11:53 51.11904 -3.36982 8226 ft 284 kts
2026-05-04 11:53 51.13856 -3.36660 8058 ft 279 kts
2026-05-04 11:55 51.21730 -3.22293 5081 ft 260 kts 70°
2026-05-04 11:55 51.22366 -3.19642 4770 ft 251 kts 70°
2026-05-04 11:56 51.22983 -3.17065 4511 ft 247 kts 70°
2026-05-04 11:56 51.23587 -3.14542 4255 ft 245 kts 70°
2026-05-04 11:56 51.24194 -3.12013 4058 ft 241 kts 70°
2026-05-04 11:56 51.24791 -3.09531 3999 ft 231 kts 70°
2026-05-04 11:57 51.25494 -3.07301 3973 ft 220 kts 47°
2026-05-04 11:57 51.26763 -3.06206 4019 ft 206 kts 14°
2026-05-04 11:57 51.28117 -3.05723 3992 ft 193 kts 15°
2026-05-04 11:57 51.29427 -3.05236 4003 ft 193 kts 15°
2026-05-04 11:58 51.30746 -3.04758 3975 ft 195 kts 14°
2026-05-04 11:58 51.32120 -3.04280 3624 ft 207 kts 16°
2026-05-04 11:58 51.33527 -3.03784 3279 ft 207 kts 14°
2026-05-04 11:58 51.34925 -3.03256 2913 ft 205 kts 20°
2026-05-04 11:59 51.36015 -3.01910 2580 ft 197 kts 61°
2026-05-04 11:59 51.36668 -3.00062 2543 ft 188 kts 62°
2026-05-04 11:59 51.37101 -2.98163 2507 ft 179 kts 82°
2026-05-04 11:59 51.37286 -2.96221 2472 ft 172 kts 83°
2026-05-04 12:00 51.37407 -2.94373 2478 ft 166 kts 86°
2026-05-04 12:00 51.37485 -2.92565 2501 ft 165 kts 87°
2026-05-04 12:00 51.37555 -2.90742 2498 ft 164 kts 86°
2026-05-04 12:00 51.37622 -2.88924 2486 ft 164 kts 86°
2026-05-04 12:01 51.37690 -2.87072 2358 ft 169 kts 87°
2026-05-04 12:01 51.37761 -2.85181 2129 ft 169 kts 86°
2026-05-04 12:02 51.38211 -2.75545 944 ft 131 kts 82°
2026-05-04 12:03 51.38196 -2.74072 680 ft 132 kts 89°
2026-05-04 12:03 51.38230 -2.72720 630 ft 107 kts 84°
2026-05-04 12:03 51.38275 -2.71645 606 ft 80 kts 88°
2026-05-04 12:03 51.38291 -2.71095 602 ft 39 kts 87°
2026-05-04 12:04 51.38308 -2.70810 611 ft 19 kts 66°
2026-05-04 12:04 51.38380 -2.70739 614 ft 4 kts 18°
2026-05-04 12:04 51.38404 -2.70726 614 ft 4 kts 19°
2026-05-04 12:04 51.38427 -2.70715 610 ft 3 kts 11°
2026-05-04 12:05 51.38451 -2.70721 610 ft 3 kts 344°
2026-05-04 12:05 51.38466 -2.70754 612 ft 5 kts 288°
2026-05-04 12:05 51.38466 -2.70821 612 ft 7 kts 265°
2026-05-04 12:05 51.38464 -2.70897 613 ft 8 kts 268°
2026-05-04 12:06 51.38461 -2.71026 613 ft 15 kts 268°
2026-05-04 12:06 51.38457 -2.71201 614 ft 16 kts 266°
2026-05-04 12:06 51.38450 -2.71379 612 ft 17 kts 266°
2026-05-04 12:06 51.38443 -2.71572 613 ft 19 kts 266°
2026-05-04 12:07 51.38436 -2.71764 609 ft 14 kts 266°
2026-05-04 12:07 51.38437 -2.71848 605 ft 5 kts 294°
2026-05-04 12:07 51.38465 -2.71869 606 ft 4 kts 357°
2026-05-04 12:07 51.38485 -2.71836 610 ft 5 kts 71°
2026-05-04 12:08 51.38487 -2.71804 611 ft 0 kts 85°